| time (UTC) | temp F | wind direction | speed MPH | gust MPH | rain 1hr in | rain 24hr in | rain mn in | humidity % | barometer mb |
| 20260504050516 | 71 | 0 | 0.0 | 0.0 | 0.00 | 0.00 | 0.00 | 72 | 1017.2 |
| 20260504045536 | 71 | 77 | 0.0 | 4.0 | 0.00 | 0.00 | 0.00 | 72 | 1017.1 |
| 20260504044536 | 71 | 67 | 1.0 | 4.0 | 0.00 | 0.00 | 0.00 | 72 | 1017.3 |
| 20260504043516 | 71 | 67 | 0.0 | 3.0 | 0.00 | 0.00 | 0.00 | 72 | 1017.3 |
| 20260504042516 | 71 | 69 | 1.0 | 4.0 | 0.00 | 0.00 | 0.00 | 72 | 1017.1 |
| 20260504041516 | 71 | 57 | 1.0 | 4.0 | 0.00 | 0.00 | 0.00 | 72 | 1017.4 |
| 20260504040516 | 71 | 77 | 1.0 | 3.0 | 0.00 | 0.00 | 0.00 | 72 | 1017.5 |
| 20260504035517 | 71 | 0 | 0.0 | 0.0 | 0.00 | 0.00 | 0.00 | 71 | 1017.6 |
| 20260504034516 | 71 | 25 | 0.0 | 1.0 | 0.00 | 0.00 | 0.00 | 71 | 1017.7 |
| 20260504033516 | 72 | 25 | 0.0 | 1.0 | 0.00 | 0.00 | 0.00 | 70 | 1017.6 |
| 20260504032538 | 72 | 0 | 0.0 | 2.0 | 0.00 | 0.00 | 0.00 | 69 | 1017.6 |
| 20260504031539 | 72 | 20 | 1.0 | 2.0 | 0.00 | 0.00 | 0.00 | 68 | 1017.6 |
| 20260504030516 | 72 | 11 | 1.0 | 3.0 | 0.00 | 0.00 | 0.00 | 68 | 1017.6 |
| 20260504025516 | 72 | 11 | 1.0 | 3.0 | 0.00 | 0.00 | 0.00 | 68 | 1017.4 |
| 20260504024516 | 72 | 31 | 1.0 | 4.0 | 0.00 | 0.00 | 0.00 | 68 | 1017.5 |
| 20260504023556 | 72 | 52 | 1.0 | 3.0 | 0.00 | 0.00 | 0.00 | 69 | 1017.3 |
| 20260504022516 | 72 | 30 | 1.0 | 3.0 | 0.00 | 0.00 | 0.00 | 68 | 1017.2 |
| 20260504021518 | 73 | 5 | 1.0 | 2.0 | 0.00 | 0.00 | 0.00 | 68 | 1017.1 |
| 20260504020516 | 73 | 25 | 1.0 | 2.0 | 0.00 | 0.01 | 0.00 | 68 | 1017.1 |
| 20260504015516 | 73 | 16 | 1.0 | 3.0 | 0.00 | 0.01 | 0.00 | 68 | 1016.8 |
| 20260504014518 | 73 | 35 | 1.0 | 3.0 | 0.00 | 0.01 | 0.00 | 68 | 1016.8 |
| 20260504013516 | 73 | 44 | 1.0 | 3.0 | 0.00 | 0.01 | 0.00 | 70 | 1016.6 |
| 20260504012516 | 73 | 27 | 1.0 | 2.0 | 0.00 | 0.01 | 0.00 | 69 | 1016.4 |
| 20260504011517 | 73 | 17 | 1.0 | 2.0 | 0.00 | 0.01 | 0.00 | 69 | 1016.4 |
| 20260504010516 | 73 | 145 | 1.0 | 3.0 | 0.00 | 0.01 | 0.00 | 69 | 1016.2 |
| 20260504005516 | 73 | 46 | 1.0 | 5.0 | 0.00 | 0.01 | 0.00 | 69 | 1016.1 |
| 20260504004517 | 73 | 319 | 1.0 | 4.0 | 0.00 | 0.01 | 0.00 | 69 | 1016.1 |
| 20260504003539 | 73 | 24 | 1.0 | 10.0 | 0.00 | 0.01 | 0.00 | 68 | 1015.9 |
| 20260504002536 | 73 | 25 | 1.0 | 6.0 | 0.00 | 0.01 | 0.00 | 68 | 1016.0 |
| 20260504001516 | 74 | 324 | 1.0 | 5.0 | 0.00 | 0.01 | 0.00 | 68 | 1015.9 |
| 20260504000516 | 74 | 327 | 1.0 | 4.0 | 0.00 | 0.01 | 0.00 | 68 | 1015.6 |
| 20260503235516 | 74 | 333 | 3.0 | 7.0 | 0.00 | 0.01 | 0.00 | 68 | 1015.7 |
| 20260503234516 | 74 | 356 | 2.0 | 8.0 | 0.00 | 0.01 | 0.00 | 67 | 1015.6 |
| 20260503233516 | 75 | 322 | 2.0 | 11.0 | 0.00 | 0.01 | 0.00 | 67 | 1015.7 |
| 20260503232517 | 75 | 349 | 2.0 | 7.0 | 0.00 | 0.01 | 0.00 | 67 | 1015.8 |
| 20260503231516 | 75 | 328 | 3.0 | 10.0 | 0.00 | 0.01 | 0.00 | 66 | 1015.7 |
| 20260503230517 | 76 | 10 | 2.0 | 8.0 | 0.00 | 0.01 | 0.00 | 66 | 1015.7 |
| 20260503225516 | 76 | 9 | 2.0 | 11.0 | 0.00 | 0.01 | 0.00 | 65 | 1015.7 |
| 20260503224516 | 77 | 321 | 3.0 | 10.0 | 0.00 | 0.01 | 0.00 | 64 | 1015.7 |
| 20260503223516 | 76 | 338 | 2.0 | 11.0 | 0.00 | 0.01 | 0.00 | 65 | 1015.7 |
| 20260503222516 | 77 | 13 | 2.0 | 5.0 | 0.00 | 0.01 | 0.00 | 64 | 1015.8 |
| 20260503221518 | 77 | 336 | 3.0 | 8.0 | 0.00 | 0.01 | 0.00 | 63 | 1015.7 |
| 20260503220536 | 78 | 338 | 2.0 | 8.0 | 0.00 | 0.01 | 0.00 | 62 | 1015.6 |
| 20260503215516 | 78 | 358 | 2.0 | 6.0 | 0.00 | 0.01 | 0.00 | 62 | 1015.8 |
| 20260503214536 | 79 | 308 | 3.0 | 10.0 | 0.00 | 0.01 | 0.00 | 61 | 1015.8 |
| 20260503213516 | 79 | 357 | 2.0 | 10.0 | 0.00 | 0.01 | 0.00 | 60 | 1015.7 |
| 20260503212516 | 80 | 331 | 3.0 | 9.0 | 0.00 | 0.01 | 0.00 | 59 | 1015.7 |
| 20260503211516 | 80 | 310 | 3.0 | 9.0 | 0.00 | 0.02 | 0.00 | 59 | 1015.8 |
| 20260503210516 | 79 | 340 | 3.0 | 9.0 | 0.00 | 0.02 | 0.00 | 60 | 1015.8 |
| 20260503205518 | 80 | 351 | 3.0 | 7.0 | 0.00 | 0.02 | 0.00 | 59 | 1015.8 |
| 20260503204516 | 81 | 303 | 3.0 | 10.0 | 0.00 | 0.03 | 0.00 | 58 | 1015.8 |
| 20260503203516 | 80 | 300 | 2.0 | 9.0 | 0.00 | 0.03 | 0.00 | 59 | 1015.9 |
| 20260503202516 | 81 | 1 | 2.0 | 10.0 | 0.00 | 0.04 | 0.00 | 59 | 1016.0 |
| 20260503201516 | 80 | 13 | 2.0 | 8.0 | 0.00 | 0.04 | 0.00 | 61 | 1016.0 |
| 20260503200516 | 80 | 353 | 2.0 | 5.0 | 0.00 | 0.05 | 0.00 | 58 | 1016.3 |
| 20260503195517 | 80 | 28 | 2.0 | 5.0 | 0.00 | 0.05 | 0.00 | 55 | 1016.5 |
| 20260503194558 | 79 | 12 | 2.0 | 5.0 | 0.00 | 0.06 | 0.00 | 56 | 1016.5 |
| 20260503193516 | 80 | 68 | 2.0 | 5.0 | 0.00 | 0.06 | 0.00 | 56 | 1016.6 |
| 20260503192516 | 79 | 55 | 1.0 | 7.0 | 0.00 | 0.06 | 0.00 | 57 | 1016.7 |
| 20260503191516 | 78 | 40 | 2.0 | 5.0 | 0.00 | 0.06 | 0.00 | 58 | 1017.1 |
| 20260503190516 | 79 | 58 | 2.0 | 6.0 | 0.00 | 0.09 | 0.00 | 57 | 1017.3 |
| 20260503185536 | 79 | 75 | 2.0 | 8.0 | 0.00 | 0.28 | 0.00 | 59 | 1017.5 |
| 20260503184516 | 78 | 22 | 3.0 | 7.0 | 0.00 | 0.33 | 0.00 | 59 | 1017.5 |
| 20260503183516 | 78 | 72 | 2.0 | 7.0 | 0.00 | 0.33 | 0.00 | 58 | 1017.7 |
| 20260503182516 | 77 | 56 | 2.0 | 5.0 | 0.00 | 0.33 | 0.00 | 60 | 1017.7 |
| 20260503181516 | 78 | 57 | 2.0 | 5.0 | 0.00 | 0.33 | 0.00 | 59 | 1017.8 |
| 20260503180516 | 78 | 38 | 2.0 | 8.0 | 0.00 | 0.33 | 0.00 | 58 | 1018.0 |
| 20260503175516 | 79 | 49 | 1.0 | 5.0 | 0.00 | 0.33 | 0.00 | 59 | 1018.1 |
| 20260503174516 | 78 | 18 | 2.0 | 7.0 | 0.00 | 0.33 | 0.00 | 59 | 1018.0 |
| 20260503173516 | 78 | 51 | 2.0 | 4.0 | 0.00 | 0.33 | 0.00 | 59 | 1018.1 |
| 20260503172516 | 77 | 77 | 2.0 | 5.0 | 0.00 | 0.33 | 0.00 | 60 | 1018.2 |
| 20260503171516 | 77 | 55 | 2.0 | 5.0 | 0.00 | 0.33 | 0.00 | 62 | 1018.4 |
| 20260503170516 | 76 | 66 | 2.0 | 7.0 | 0.00 | 0.33 | 0.00 | 62 | 1018.4 |
| 20260503150516 | 70 | 31 | 3.0 | 9.0 | 0.00 | 0.33 | 0.00 | 68 | 1018.7 |
| 20260503130536 | 65 | 46 | 2.0 | 4.0 | 0.00 | 0.33 | 0.00 | 80 | 1017.9 |
| 20260503110517 | 64 | 27 | 3.0 | 5.0 | 0.00 | 0.33 | 0.00 | 81 | 1016.3 |
| 20260503081516 | 66 | 28 | 1.0 | 3.0 | 0.00 | 0.33 | 0.00 | 85 | 1015.6 |
| 20260503080516 | 66 | 12 | 1.0 | 4.0 | 0.00 | 0.33 | 0.00 | 85 | 1015.6 |